Wind_Speed
17 16 15 14 12 10 7 7 8 9 12 13 13 12 11 11 11 12 11 11 9 9 9 10 10 11 11 11 11 11 11 12 11 11 11 12 12 12 12 12 12 12 12 12 11 12 12 12 12
18 17 16 15 12 9 7 8 10 10 13 15 14 13 13 12 13 14 13 12 10 10 11 12 12 12 12 13 12 13 13 13 13 13 13 13 14 13 13 13 13 13 13 13 13 13 13 13 13
19 18 16 15 13 10 10 9 10 13 16 16 14 13 13 13 13 14 13 13 12 12 12 13 13 13 13 14 14 14 14 14 14 14 14 14 15 15 15 14 14 14 14 14 14 14 14 14 14
19 18 17 16 13 11 12 12 13 15 17 16 15 14 14 14 13 13 12 12 13 13 13 14 14 14 15 15 15 15 15 15 15 15 15 16 16 16 16 16 15 15 15 15 16 16 16 15 15
19 18 17 16 13 12 16 15 15 15 17 16 15 14 14 15 14 14 14 13 13 14 15 15 15 15 16 15 15 16 16 16 16 16 17 17 17 17 17 17 17 17 17 16 17 17 17 17 17
18 17 16 14 12 14 16 17 16 17 18 14 14 14 14 16 15 14 13 13 14 14 15 17 17 16 16 16 16 17 17 17 17 17 17 17 18 18 18 18 18 18 18 18 18 18 18 18 18
17 15 14 13 13 14 16 17 18 18 18 15 15 16 15 16 16 15 15 15 16 15 15 16 16 17 16 16 17 18 17 17 17 17 18 18 18 18 19 19 19 19 19 19 19 18 19 19 19
17 15 14 14 14 15 17 17 19 19 19 17 16 17 17 18 17 16 16 16 17 16 15 16 15 17 17 17 18 18 18 17 18 18 19 19 19 19 19 19 20 20 20 20 20 20 20 20 20
16 15 15 14 14 16 18 18 19 20 20 20 19 19 19 18 19 18 18 18 18 18 17 17 17 17 17 18 18 19 18 19 19 19 20 20 20 20 20 20 21 21 21 21 21 21 21 21 21
15 14 14 14 17 18 19 20 19 19 20 20 21 22 20 19 20 19 19 18 19 19 18 18 18 18 19 19 19 19 20 21 21 21 21 21 21 21 22 22 22 22 22 22 23 23 23 23 23
15 14 15 17 20 19 20 20 20 20 20 20 21 23 21 20 21 20 20 19 19 19 19 19 19 19 20 20 20 21 21 21 21 21 22 22 22 23 23 23 22 23 23 23 23 23 24 24 24
14 14 15 17 20 19 20 20 21 21 21 21 21 22 22 21 21 21 21 21 20 20 21 21 20 21 21 21 22 22 21 21 21 22 22 22 23 23 23 23 23 24 24 24 24 25 25 25 24
13 14 15 15 16 18 21 20 19 20 22 22 22 22 21 20 22 22 21 21 21 21 21 21 21 22 22 22 22 22 22 22 22 22 23 23 24 24 24 24 25 25 25 25 25 25 25 24 23
13 13 13 14 15 16 16 15 18 19 21 22 22 22 21 21 22 22 22 21 22 22 21 21 22 21 22 22 22 23 23 23 23 23 24 24 25 25 25 25 25 26 26 26 25 25 25 24 25
10 11 11 13 15 15 15 15 17 18 20 20 21 21 21 21 21 21 21 21 22 22 21 22 22 22 22 22 23 23 23 24 25 24 25 25 26 26 26 26 25 26 26 26 26 26 26 26 26
7 10 11 12 14 15 16 16 17 18 19 20 21 21 21 20 21 20 20 21 22 22 22 22 22 22 22 23 24 24 24 25 25 26 26 27 26 26 27 26 26 27 27 26 27 27 28 27 28
7 10 12 13 14 16 18 17 17 19 19 20 21 21 21 21 21 21 21 21 21 22 22 21 22 22 23 23 24 25 26 26 27 28 27 28 27 28 29 27 27 27 27 27 27 28 28 28 28
7 10 12 12 15 17 18 20 19 19 19 21 21 21 21 21 22 22 21 22 22 22 21 21 22 22 23 23 24 26 27 27 28 28 27 28 28 29 29 28 27 28 27 27 28 29 30 30 30
9 11 12 13 16 17 18 19 17 19 20 20 20 20 20 21 21 21 20 21 21 20 20 21 22 23 24 25 25 27 27 28 29 28 28 29 29 29 29 28 28 28 28 27 28 30 30 31 31
10 12 13 14 15 18 17 16 14 17 20 19 19 20 20 21 21 21 20 21 21 21 22 22 23 24 25 26 27 28 28 29 29 30 29 30 30 30 29 29 28 28 28 28 29 30 31 31 30
12 13 13 15 14 14 15 16 15 16 18 18 19 20 21 21 21 21 20 21 21 22 22 24 24 25 26 27 28 29 29 30 30 30 31 31 31 30 30 29 29 28 29 30 30 31 31 30 30
14 15 15 14 11 13 15 16 14 14 17 19 18 19 19 19 20 21 21 21 22 23 23 24 26 26 27 28 29 30 31 31 30 30 31 31 30 30 30 30 29 30 30 30 31 31 30 29 28
14 15 16 15 13 13 12 14 15 15 17 18 18 18 18 18 19 19 20 21 23 23 23 25 26 27 28 29 30 31 31 31 30 30 30 30 30 29 30 30 30 31 30 29 30 30 29 29 28
13 14 13 11 11 12 9 12 14 16 18 18 18 20 19 19 19 19 20 22 22 23 24 25 26 27 28 29 29 30 30 30 29 28 29 28 28 29 30 31 30 30 29 30 30 29 29 28 28
11 11 10 10 10 10 10 13 15 16 17 17 19 19 19 20 21 20 21 23 24 24 25 26 26 27 28 28 28 28 29 29 29 28 28 28 28 28 29 30 30 30 30 30 28 28 28 28 28
10 10 10 12 13 12 12 14 15 14 17 19 19 19 18 20 20 20 21 23 24 25 25 26 26 27 27 27 27 27 27 28 27 28 28 28 28 28 30 29 29 30 29 29 28 27 27 27 27
9 9 12 13 13 13 12 13 15 17 18 17 18 18 18 19 19 21 22 22 23 24 24 24 25 25 26 26 26 26 27 27 27 27 27 28 28 28 28 27 27 28 28 28 28 27 28 28 27
10 12 13 11 12 12 12 13 15 16 18 19 18 19 19 20 20 21 22 22 23 23 24 24 23 24 24 25 26 26 26 26 27 27 27 27 27 26 26 25 25 26 27 28 27 27 27 27 27
9 11 12 12 12 14 14 14 13 15 16 17 18 18 19 20 20 20 21 21 22 22 22 22 23 23 24 25 25 26 25 25 25 26 26 25 26 25 25 25 26 26 26 26 27 27 27 27 27
10 10 11 13 14 14 16 17 15 15 15 17 17 18 19 20 19 19 20 21 21 21 21 22 23 23 23 24 24 24 24 25 25 25 25 25 26 25 25 25 25 25 26 26 26 26 26 27 26
Wind_Direction
228 229 230 229 226 227 231 240 239 224 241 248 247 244 249 250 253 258 262 267 270 277 283 288 291 290 289 290 292 294 294 294 296 296 295 297 300 300 301 302 301 300 300 298 298 298 296 294 293
227 225 228 227 225 226 238 248 248 235 239 249 252 250 252 255 260 261 262 267 273 278 283 286 288 290 288 289 290 292 292 293 292 294 294 295 298 300 300 300 301 299 299 298 298 298 296 295 294
226 224 225 227 230 226 230 238 249 246 246 251 254 255 256 259 266 267 267 269 272 277 281 283 287 288 289 289 288 290 291 293 293 293 293 295 297 298 298 299 300 299 299 300 299 299 297 296 296
225 224 225 228 229 231 235 230 239 246 249 253 255 258 258 263 264 270 270 273 273 276 280 285 287 287 288 288 289 292 293 293 295 294 295 296 296 297 297 298 299 298 298 299 299 301 299 297 296
226 225 227 226 228 233 236 233 236 244 252 255 255 258 261 264 266 271 273 272 276 279 282 284 286 286 288 288 288 292 293 294 295 295 295 297 297 297 299 299 299 298 298 298 298 299 299 297 296
223 225 227 228 230 238 243 240 243 249 254 254 257 258 261 265 269 274 280 277 282 283 282 283 284 285 288 288 288 289 292 294 295 295 296 298 298 299 301 300 298 297 297 297 297 297 297 297 296
219 223 229 237 240 240 248 248 248 249 256 256 260 259 261 267 272 276 279 281 283 286 288 286 285 286 288 288 289 290 291 293 294 295 297 299 299 300 301 300 299 297 298 298 297 296 296 296 295
218 218 225 233 237 242 248 249 250 250 253 256 257 259 261 266 271 274 278 280 282 284 286 287 289 289 290 291 290 290 292 294 295 297 299 299 299 299 299 300 299 298 298 299 298 297 298 297 295
215 221 226 230 235 242 248 248 252 253 254 253 252 254 258 263 268 275 279 280 281 283 285 287 290 291 290 291 291 291 293 296 297 297 299 299 299 299 299 300 300 299 298 298 298 299 298 296 294
216 223 228 229 233 236 240 246 251 253 255 254 255 258 261 264 269 273 277 278 279 281 281 284 288 292 292 291 292 294 293 295 297 297 298 301 302 301 300 301 300 299 298 297 296 297 298 295 294
224 225 225 226 230 234 237 241 246 248 250 255 260 263 264 266 270 272 274 276 278 280 282 284 287 292 291 291 292 293 293 296 298 299 301 302 303 302 301 302 301 300 299 298 296 296 297 295 294
229 230 233 234 235 238 242 245 244 247 248 254 260 261 265 266 268 271 274 275 277 278 279 283 286 290 291 291 292 293 294 298 301 302 302 302 303 303 302 302 303 301 301 299 297 296 296 295 293
236 242 245 248 251 246 250 252 245 249 253 255 258 262 265 263 268 269 272 272 273 277 279 283 286 288 291 292 292 294 297 299 302 303 302 302 302 303 301 303 303 303 301 298 297 297 297 295 294
238 244 251 255 257 260 260 259 253 253 258 260 261 263 266 266 266 268 270 270 275 277 279 281 284 286 289 293 294 295 298 300 300 301 302 303 302 301 302 302 303 305 303 299 297 297 297 296 296
240 246 247 252 261 268 264 259 256 255 259 264 268 269 270 267 265 267 268 271 274 276 278 280 280 284 289 291 292 295 296 297 298 298 300 301 302 302 302 302 301 302 303 301 298 298 298 297 297
254 256 257 255 263 266 267 264 262 256 259 265 269 269 269 268 267 267 269 272 274 277 278 279 279 284 288 289 290 292 292 295 297 297 300 301 300 299 302 303 301 301 302 300 298 299 299 298 298
266 272 270 261 263 266 268 269 269 262 263 268 269 268 270 271 272 270 272 272 274 275 277 278 279 282 286 287 288 289 290 292 295 295 297 299 299 299 299 301 301 302 301 301 299 299 299 299 298
267 272 272 274 273 264 267 269 272 269 266 271 272 271 270 270 270 271 273 276 276 276 275 277 279 281 283 285 288 288 289 291 293 293 294 297 298 299 298 300 300 301 302 301 300 300 299 299 298
264 261 262 270 272 275 276 271 272 275 276 273 270 269 271 273 275 276 277 277 276 273 274 276 279 283 284 286 286 289 290 291 292 291 293 295 295 297 298 299 299 300 300 300 300 301 301 299 298
269 271 267 268 269 275 278 275 273 278 282 280 275 273 272 275 276 276 277 276 276 276 276 277 279 283 284 285 285 288 289 290 291 293 294 295 295 295 298 299 298 298 298 299 300 301 302 301 299
270 267 268 272 271 274 277 278 278 275 277 278 274 278 279 278 277 277 276 275 274 274 276 277 281 283 284 285 286 289 290 291 290 291 291 292 295 297 298 298 297 299 299 299 300 301 302 301 299
263 263 263 267 269 271 274 277 274 274 278 279 277 277 280 281 279 280 277 273 274 275 276 278 281 283 285 286 288 290 290 290 289 290 292 294 295 296 296 296 296 299 299 299 301 301 302 302 301
260 263 268 268 269 265 267 272 276 275 272 276 275 274 277 283 282 280 280 278 277 276 279 281 283 284 286 288 290 291 291 290 290 290 292 293 295 296 295 296 297 299 299 300 302 302 302 302 302
268 272 275 275 275 277 274 269 276 277 276 276 278 279 278 283 285 285 284 284 283 281 282 284 284 283 286 288 290 293 292 291 290 291 293 293 296 296 295 297 298 298 299 300 301 303 302 301 300
274 283 293 288 274 274 273 270 274 272 278 283 282 280 284 286 289 290 288 287 285 284 284 284 283 284 286 287 290 293 293 293 292 291 292 294 295 296 296 297 297 299 299 301 301 302 302 300 299
275 279 285 287 284 270 260 266 275 275 278 281 281 281 286 286 288 291 290 290 287 286 286 286 283 284 285 287 289 291 294 294 294 295 294 295 296 296 297 297 297 299 300 301 300 301 301 300 299
287 278 279 281 285 286 282 278 283 284 283 286 288 286 286 288 292 292 292 292 292 292 292 292 289 288 287 288 291 292 294 294 295 296 295 295 295 296 297 297 298 299 300 301 302 301 301 298 297
299 287 284 281 281 280 278 275 280 283 286 291 291 290 288 291 295 295 295 295 296 295 294 293 293 293 291 292 293 294 294 294 295 297 296 296 296 297 296 297 301 303 303 303 304 303 303 301 298
285 290 289 291 279 279 287 287 288 288 295 297 297 295 292 293 293 296 298 298 299 298 297 296 297 297 295 295 297 297 295 296 296 296 297 295 297 297 297 300 303 304 304 306 306 303 304 303 301
278 279 283 288 284 284 288 293 295 295 296 297 299 297 295 294 295 299 301 302 302 301 301 300 299 299 299 298 299 300 299 299 298 296 296 296 298 297 299 300 303 304 306 307 306 305 305 304 303
Height
5874 5876 5878 5880 5882 5885 5887 5889 5888 5890 5890 5889 5889 5890 5890 5891 5891 5893 5891 5890 5891 5891 5891 5891 5890 5890 5889 5889 5888 5887 5886 5886 5885 5884 5883 5882 5881 5880 5880 5878 5877 5876 5875 5874 5873 5873 5872 5871 5870
5871 5874 5876 5878 5880 5882 5886 5887 5888 5888 5887 5887 5888 5888 5889 5889 5889 5888 5889 5889 5889 5889 5889 5889 5888 5888 5887 5887 5886 5885 5885 5884 5883 5882 5881 5880 5879 5878 5877 5876 5875 5874 5873 5872 5871 5870 5869 5869 5868
5868 5870 5873 5876 5878 5881 5884 5886 5886 5885 5885 5885 5886 5886 5887 5887 5887 5886 5886 5887 5888 5888 5888 5887 5887 5886 5885 5884 5884 5883 5883 5882 5881 5880 5879 5878 5877 5876 5875 5874 5873 5871 5870 5870 5868 5867 5867 5866 5865
5865 5868 5870 5874 5876 5879 5881 5883 5884 5883 5883 5883 5884 5885 5885 5885 5885 5885 5884 5885 5886 5886 5886 5885 5884 5884 5883 5882 5881 5881 5880 5879 5879 5877 5877 5876 5874 5873 5872 5871 5870 5869 5868 5867 5866 5865 5864 5863 5862
5862 5865 5868 5871 5875 5878 5878 5879 5880 5880 5880 5880 5881 5882 5882 5882 5883 5883 5883 5883 5884 5884 5884 5883 5882 5881 5881 5880 5879 5878 5878 5877 5876 5875 5874 5873 5872 5871 5870 5868 5867 5866 5865 5864 5863 5862 5861 5860 5859
5859 5862 5866 5869 5872 5876 5876 5877 5878 5878 5878 5878 5879 5880 5880 5879 5880 5880 5880 5881 5881 5881 5881 5880 5879 5879 5878 5877 5877 5876 5875 5874 5873 5872 5871 5870 5869 5868 5867 5866 5864 5863 5862 5861 5860 5859 5858 5857 5856
5856 5859 5863 5867 5870 5874 5874 5874 5875 5876 5874 5876 5877 5877 5877 5877 5877 5878 5878 5877 5877 5878 5877 5877 5876 5876 5875 5874 5874 5873 5872 5871 5870 5869 5868 5867 5866 5865 5864 5863 5861 5860 5859 5858 5856 5855 5854 5853 5852
5853 5857 5860 5865 5869 5871 5871 5871 5872 5872 5872 5874 5874 5874 5874 5874 5874 5874 5875 5874 5874 5874 5875 5874 5874 5873 5873 5872 5871 5870 5869 5868 5867 5867 5866 5864 5863 5862 5861 5859 5858 5857 5855 5854 5853 5851 5850 5849 5848
5850 5855 5858 5863 5866 5869 5868 5868 5869 5869 5870 5871 5871 5871 5871 5871 5871 5871 5871 5872 5871 5871 5871 5871 5871 5870 5870 5869 5868 5867 5866 5865 5864 5864 5862 5861 5860 5859 5857 5856 5854 5853 5851 5850 5849 5847 5846 5845 5844
5849 5852 5856 5860 5862 5863 5863 5864 5865 5866 5866 5867 5867 5867 5867 5867 5868 5868 5868 5869 5868 5868 5868 5868 5867 5867 5866 5866 5865 5864 5863 5862 5861 5860 5859 5858 5856 5855 5854 5852 5850 5849 5847 5846 5844 5843 5842 5840 5839
5847 5851 5853 5854 5856 5857 5858 5859 5861 5862 5863 5864 5864 5863 5863 5864 5865 5865 5865 5865 5865 5865 5864 5864 5864 5863 5863 5862 5861 5860 5859 5859 5858 5857 5855 5854 5852 5851 5850 5848 5846 5844 5843 5841 5839 5838 5837 5835 5834
5846 5848 5849 5850 5851 5852 5854 5855 5856 5858 5859 5859 5860 5860 5860 5860 5861 5861 5861 5861 5861 5861 5861 5860 5860 5860 5859 5859 5857 5856 5855 5855 5853 5852 5851 5850 5848 5846 5845 5843 5842 5840 5838 5836 5835 5833 5832 5830 5829
5844 5845 5846 5847 5848 5849 5850 5850 5852 5853 5855 5856 5855 5854 5854 5856 5857 5857 5857 5856 5856 5857 5857 5857 5856 5856 5855 5855 5854 5852 5851 5851 5849 5848 5847 5845 5844 5842 5840 5838 5837 5835 5833 5831 5830 5828 5826 5825 5823
5842 5843 5844 5845 5845 5846 5847 5848 5848 5849 5851 5851 5851 5850 5850 5852 5853 5853 5853 5853 5853 5854 5854 5853 5853 5852 5851 5851 5850 5849 5848 5847 5845 5844 5843 5841 5840 5838 5836 5834 5832 5830 5828 5826 5824 5823 5821 5820 5818
5839 5841 5842 5843 5843 5844 5845 5846 5846 5846 5847 5847 5847 5847 5847 5847 5848 5849 5849 5849 5850 5850 5850 5849 5849 5848 5848 5847 5846 5845 5844 5842 5841 5840 5839 5837 5835 5833 5831 5829 5827 5825 5823 5821 5819 5817 5816 5814 5812
5837 5838 5840 5841 5841 5841 5842 5842 5843 5843 5843 5844 5844 5844 5844 5843 5843 5844 5844 5845 5846 5846 5845 5845 5844 5844 5844 5843 5842 5841 5839 5838 5836 5835 5834 5832 5830 5829 5827 5825 5822 5820 5818 5816 5814 5812 5810 5808 5806
5836 5837 5838 5839 5839 5839 5839 5838 5839 5839 5839 5839 5840 5840 5840 5840 5839 5840 5840 5841 5841 5841 5841 5840 5840 5840 5839 5838 5837 5836 5835 5833 5832 5831 5829 5827 5825 5824 5822 5820 5817 5815 5813 5811 5808 5806 5804 5802 5800
5836 5836 5836 5836 5837 5836 5835 5835 5834 5835 5835 5835 5836 5836 5836 5836 5836 5836 5836 5836 5837 5836 5836 5836 5836 5835 5834 5833 5832 5831 5830 5829 5827 5826 5824 5822 5820 5818 5816 5814 5812 5810 5807 5805 5803 5800 5798 5796 5794
5833 5834 5835 5835 5834 5833 5832 5832 5830 5831 5831 5831 5832 5832 5832 5832 5831 5831 5832 5832 5832 5831 5831 5831 5831 5830 5829 5828 5827 5826 5824 5823 5822 5820 5819 5817 5815 5812 5810 5808 5806 5804 5802 5799 5797 5795 5792 5790 5787
5831 5831 5831 5831 5831 5830 5829 5829 5829 5829 5828 5828 5828 5828 5828 5828 5828 5827 5828 5827 5827 5827 5827 5826 5826 5825 5824 5823 5822 5821 5819 5817 5816 5814 5813 5811 5809 5806 5804 5802 5800 5798 5796 5794 5791 5789 5786 5783 5781
5829 5829 5828 5828 5827 5827 5827 5827 5827 5826 5825 5824 5824 5824 5823 5823 5823 5822 5822 5822 5823 5823 5822 5822 5821 5820 5819 5818 5817 5815 5813 5811 5809 5808 5807 5805 5803 5801 5798 5796 5794 5792 5790 5788 5785 5782 5779 5776 5774
5826 5826 5825 5824 5823 5824 5825 5823 5823 5822 5821 5820 5819 5819 5818 5819 5819 5818 5817 5817 5817 5817 5817 5817 5816 5814 5813 5812 5811 5809 5807 5805 5804 5802 5801 5799 5797 5795 5793 5791 5788 5786 5784 5781 5779 5776 5772 5769 5767
5823 5822 5821 5821 5820 5820 5821 5821 5821 5819 5818 5816 5815 5815 5815 5815 5815 5813 5813 5812 5812 5811 5810 5811 5810 5808 5807 5806 5804 5803 5801 5799 5797 5796 5794 5792 5790 5788 5786 5784 5782 5779 5777 5775 5772 5769 5766 5763 5760
5819 5818 5818 5818 5818 5817 5818 5818 5818 5815 5814 5813 5812 5812 5811 5811 5810 5810 5809 5808 5806 5806 5805 5805 5803 5802 5801 5800 5798 5796 5794 5792 5790 5789 5787 5786 5783 5781 5780 5778 5776 5773 5771 5768 5765 5762 5759 5756 5754
5816 5816 5815 5816 5816 5816 5816 5815 5815 5813 5811 5810 5809 5808 5808 5808 5806 5805 5805 5803 5802 5801 5800 5799 5797 5796 5795 5793 5792 5789 5788 5786 5783 5781 5781 5779 5777 5776 5774 5772 5769 5767 5764 5762 5759 5756 5753 5750 5748
5815 5815 5815 5813 5812 5812 5812 5812 5811 5808 5807 5806 5805 5805 5804 5803 5802 5801 5800 5798 5797 5796 5794 5792 5791 5789 5788 5787 5786 5784 5782 5780 5777 5775 5774 5772 5770 5769 5767 5764 5762 5759 5757 5755 5752 5749 5746 5744 5741
5813 5813 5812 5811 5810 5809 5808 5808 5806 5806 5803 5802 5802 5801 5801 5799 5798 5797 5796 5794 5792 5790 5788 5786 5784 5782 5781 5780 5779 5777 5776 5774 5771 5769 5768 5766 5764 5762 5760 5758 5756 5753 5751 5748 5745 5742 5740 5737 5734
5811 5810 5809 5808 5806 5806 5806 5805 5804 5802 5801 5800 5798 5798 5796 5795 5794 5793 5791 5789 5787 5785 5783 5781 5779 5777 5775 5774 5773 5771 5769 5767 5765 5763 5762 5760 5758 5756 5754 5752 5749 5747 5745 5742 5739 5736 5733 5730 5727
5810 5809 5807 5805 5803 5803 5801 5803 5800 5798 5797 5796 5796 5795 5793 5792 5790 5788 5787 5785 5783 5780 5778 5776 5774 5772 5770 5769 5767 5765 5763 5761 5759 5758 5756 5754 5752 5750 5749 5746 5744 5741 5739 5735 5732 5729 5726 5724 5720
5805 5805 5805 5803 5801 5800 5799 5801 5797 5795 5793 5794 5793 5791 5789 5787 5786 5785 5782 5779 5777 5775 5773 5771 5769 5767 5765 5763 5761 5759 5757 5755 5753 5752 5750 5748 5746 5744 5742 5740 5738 5735 5732 5729 5726 5723 5720 5717 5714